Date,TemperatureHighF,TemperatureAvgF,TemperatureLowF,DewpointHighF,DewpointAvgF,DewpointLowF,HumidityHigh,HumidityAvg,HumidityLow,PressureMaxIn,PressureMinIn,WindSpeedMaxMPH,WindSpeedAvgMPH,GustSpeedMaxMPH,PrecipitationSumIn
2012-1-1,58,46,32,48,33,14,74,60,40,30.24,29.85,28,12,28,0.00
2012-1-2,32,26,18,20,15,10,81,63,49,30.36,30.16,23,9,23,0.00
2012-1-3,27,20,14,12,9,6,76,61,41,30.52,30.35,16,5,16,0.00
2012-1-4,43,32,20,23,16,8,66,52,39,30.36,30.08,20,6,20,0.00
2012-1-5,51,38,28,27,24,22,80,59,36,30.24,30.04,16,5,16,0.00
2012-1-6,61,49,40,39,31,26,63,50,32,30.04,29.89,21,8,21,0.00
2012-1-7,55,50,37,49,37,24,84,62,32,30.20,29.88,15,5,15,0.00
2012-1-8,48,40,32,32,27,24,82,61,48,30.35,30.20,12,4,12,0.00
2012-1-9,50,41,36,34,30,25,76,64,48,30.26,30.13,9,2,9,0.00
2012-1-10,56,41,31,33,29,25,81,64,38,30.18,29.92,12,2,12,0.00
2012-1-11,59,49,41,52,43,30,90,80,55,29.92,29.45,21,6,21,0.99
2012-1-12,46,36,19,42,32,13,90,85,74,29.82,29.44,24,10,24,0.09
2012-1-13,21,19,15,15,11,7,79,73,66,30.22,29.82,24,10,24,0.00
2012-1-14,34,24,16,24,18,11,86,77,54,30.27,30.13,10,3,10,0.00
2012-1-15,35,27,22,24,20,16,86,76,61,30.56,30.27,12,3,12,0.02
2012-1-16,54,43,28,41,31,22,78,62,50,30.38,30.02,24,11,24,0.03
2012-1-17,59,49,32,54,41,24,89,74,56,30.18,29.74,28,13,28,1.00
2012-1-18,34,29,25,25,18,15,75,65,53,30.34,30.16,12,4,12,0.00
2012-1-19,40,31,23,26,21,16,80,69,53,30.17,29.97,17,5,17,0.00
2012-1-20,43,32,26,37,25,20,80,74,68,30.22,29.82,15,4,15,0.00
2012-1-21,46,31,28,42,27,23,87,85,77,30.25,29.81,17,6,17,0.02
2012-1-22,56,41,29,50,37,25,90,86,77,30.23,29.88,17,5,17,0.13
2012-1-23,60,52,40,52,44,34,90,75,59,30.05,29.70,32,10,32,0.80
2012-1-24,48,39,30,34,31,25,85,75,55,30.39,30.05,12,4,12,0.00
2012-1-25,40,34,29,35,30,24,85,83,74,30.39,30.11,9,3,9,0.02
2012-1-26,61,52,39,55,48,34,90,85,81,30.11,29.49,20,7,20,0.56
2012-1-27,46,38,35,42,33,30,89,83,76,30.13,29.57,17,6,17,0.15
2012-1-28,43,37,30,36,25,13,88,65,32,30.36,30.01,24,6,24,0.02
2012-1-29,48,36,27,22,19,16,70,52,28,30.36,30.18,30,9,30,0.00
2012-1-30,58,42,27,30,24,18,70,51,32,30.36,30.23,22,7,22,0.00
2012-1-31,61,54,47,36,28,24,57,38,29,30.25,30.10,24,10,24,0.02
2012-2-1,60,54,49,53,48,35,89,80,52,30.14,30.03,20,4,20,0.28
2012-2-2,56,47,39,50,39,33,90,75,47,30.41,30.05,12,3,12,0.01
2012-2-3,60,47,37,36,33,30,83,61,36,30.47,30.28,12,2,12,0.00
2012-2-4,47,44,40,42,38,31,90,80,55,30.28,30.06,10,2,10,0.58
2012-2-5,43,38,30,38,34,26,90,84,66,30.30,30.06,13,4,13,0.02
2012-2-6,48,36,27,33,28,24,89,74,50,30.30,30.22,9,2,9,0.01
2012-2-7,49,37,30,34,29,25,82,71,50,30.30,30.23,12,3,12,0.00
2012-2-8,36,33,30,30,28,26,87,82,74,30.38,30.27,8,2,8,0.06
2012-2-9,35,33,31,28,26,24,85,77,66,30.40,30.27,6,1,6,0.00
2012-2-10,34,31,28,28,25,22,85,79,64,30.28,30.00,10,1,10,0.01
2012-2-11,32,26,20,28,18,9,84,73,58,30.45,29.97,21,3,21,0.01
2012-2-12,34,26,20,18,13,7,65,58,48,30.49,30.37,14,3,14,0.00
2012-2-13,37,34,30,19,17,14,56,50,43,30.37,30.03,12,1,12,0.00
2012-2-14,36,36,36,18,18,18,48,48,48,30.14,29.95,0,0,0,0.00
2012-2-15,52,44,36,40,30,18,89,59,48,30.26,30.04,12,1,12,0.00
2012-2-16,51,50,48,43,40,39,82,68,63,30.20,30.00,8,0,8,0.00
2012-2-17,52,46,32,43,33,25,87,63,37,30.29,30.15,9,1,9,0.00
2012-2-18,52,43,35,35,29,25,70,59,47,30.15,30.07,15,3,15,0.00
2012-2-19,38,34,28,27,23,21,74,64,59,30.20,29.97,18,8,18,0.00
2012-2-20,50,34,22,28,22,17,83,64,35,30.39,30.13,17,4,17,0.00
2012-2-21,52,44,32,40,34,26,78,68,58,30.13,29.90,31,9,31,0.02
2012-2-22,58,48,39,43,38,32,84,69,48,29.96,29.53,25,7,25,0.03
2012-2-23,71,54,42,54,46,38,87,75,44,29.66,29.34,20,3,20,0.17
2012-2-24,62,46,33,54,36,25,86,71,47,30.06,29.38,28,11,28,0.24
2012-2-25,38,32,27,25,20,16,71,60,44,30.43,30.06,21,6,21,0.00
2012-2-26,56,38,22,26,20,16,77,51,27,30.47,30.28,14,3,14,0.00
2012-2-27,62,51,41,37,29,22,50,43,35,30.47,30.30,20,6,20,0.00
2012-2-28,69,50,34,39,30,22,64,47,32,30.47,30.04,14,4,14,0.00
2012-2-29,65,61,56,60,55,39,89,80,50,30.06,29.66,24,10,24,0.93
2012-3-1,60,51,43,40,34,31,63,51,41,29.94,29.75,20,6,20,0.00
2012-3-2,72,55,43,62,45,32,87,69,51,29.84,29.36,24,8,24,0.34
2012-3-3,49,40,32,36,28,23,83,63,38,29.94,29.72,20,7,20,0.00
2012-3-4,41,34,27,29,22,20,86,64,44,29.99,29.91,20,4,20,0.00
2012-3-5,32,30,26,29,24,20,90,80,66,30.53,29.88,12,2,12,0.36
2012-3-6,68,45,25,31,25,20,82,51,22,30.52,30.32,18,6,18,0.09
2012-3-7,68,58,48,47,38,24,57,47,34,30.41,30.22,27,11,27,0.00
2012-3-8,60,53,38,53,46,31,90,76,58,30.30,30.04,22,10,22,0.85
2012-3-9,51,41,33,32,25,19,79,57,32,30.53,30.30,20,6,20,0.00
2012-3-10,59,42,29,27,22,18,65,46,26,30.59,30.42,12,3,12,0.00
2012-3-11,69,54,38,35,28,23,57,38,22,30.47,30.26,18,4,18,0.00
2012-3-12,64,60,52,57,50,34,86,71,38,30.26,30.07,20,8,20,0.19
2012-3-13,75,65,59,59,56,53,87,74,55,30.17,30.08,18,6,18,0.00
2012-3-14,79,66,55,58,53,49,84,64,40,30.23,30.13,16,3,16,0.00
2012-3-15,80,66,59,63,56,50,87,70,50,30.20,30.09,24,5,24,0.13
2012-3-16,66,61,57,58,56,54,90,83,73,30.22,30.10,13,4,13,0.24
2012-3-17,77,66,57,62,58,54,90,78,57,30.21,30.10,18,3,18,0.45
2012-3-18,78,68,59,62,59,56,90,74,55,30.21,30.10,16,5,16,0.03
2012-3-19,84,76,66,59,56,52,63,52,40,30.17,30.05,31,4,31,0.00
2012-3-20,87,74,63,60,56,52,69,56,38,30.15,30.03,12,2,12,0.00
2012-3-21,88,73,62,61,57,53,73,58,37,30.18,30.05,13,2,13,0.01
2012-3-22,81,71,61,60,57,53,75,61,45,30.17,30.06,14,3,14,0.00
2012-3-23,75,67,64,63,60,57,89,78,63,30.08,29.77,18,4,18,0.23
2012-3-24,64,57,51,60,48,43,89,72,50,29.90,29.81,25,4,25,0.11
2012-3-25,69,58,47,55,49,42,84,74,56,30.03,29.88,17,4,17,0.00
2012-3-26,62,54,43,52,43,20,89,67,20,30.28,30.02,20,6,20,0.00
2012-3-27,74,52,36,41,32,23,63,48,28,30.32,30.07,13,3,13,0.00
2012-3-28,79,67,59,61,52,38,75,60,45,30.07,29.89,25,7,25,0.04
2012-3-29,71,60,50,52,44,39,71,55,40,30.08,29.95,12,3,12,0.00
2012-3-30,79,64,51,61,50,39,76,62,49,29.99,29.75,21,6,21,0.00
2012-3-31,65,57,47,57,51,42,89,81,64,29.94,29.79,22,3,22,0.00
2012-4-1,71,55,44,60,50,40,90,82,64,29.94,29.72,15,4,15,0.29
2012-4-2,74,64,55,58,51,39,87,65,40,29.93,29.71,14,4,14,0.00
2012-4-3,84,69,56,66,52,37,70,55,41,29.95,29.81,16,4,16,0.00
2012-4-4,76,65,56,66,58,52,89,77,62,29.87,29.71,18,4,18,0.49
2012-4-5,61,52,43,52,39,33,84,62,38,29.95,29.74,20,8,20,0.07
2012-4-6,61,47,34,38,32,28,82,57,35,30.24,29.95,20,9,20,0.00
2012-4-7,71,53,39,36,29,24,61,42,20,30.33,30.20,10,2,10,0.00
2012-4-8,66,57,49,46,36,29,64,47,30,30.22,30.15,14,3,14,0.00
2012-4-9,67,55,44,41,32,27,60,44,27,30.17,29.97,22,6,22,0.00
2012-4-10,58,50,41,30,26,19,62,40,25,30.10,29.97,20,6,20,0.00
2012-4-11,50,40,31,29,25,22,72,56,42,30.29,30.10,16,4,16,0.00
2012-4-12,61,45,30,34,30,25,81,57,35,30.37,30.19,12,2,12,0.00
2012-4-13,69,54,38,40,33,30,75,50,27,30.27,30.16,13,2,13,0.00
2012-4-14,76,64,54,54,45,36,58,50,44,30.19,30.00,17,5,17,0.00
2012-4-15,82,70,59,57,53,48,70,56,39,30.08,29.94,22,9,22,0.00
2012-4-16,74,68,57,62,55,46,85,64,45,30.20,29.91,26,10,26,0.05
2012-4-17,61,56,47,46,43,40,83,63,49,30.37,30.20,12,3,12,0.00
2012-4-18,71,59,51,46,43,42,73,57,39,30.27,30.06,12,4,12,0.00
2012-4-19,78,62,46,51,47,43,90,62,33,30.11,29.92,12,2,12,0.00
2012-4-20,76,64,54,57,51,44,77,63,43,29.92,29.75,18,6,18,0.00
2012-4-21,58,48,44,50,44,40,90,85,75,29.97,29.80,14,5,14,0.68
2012-4-22,49,44,39,40,35,30,84,71,55,29.95,29.86,18,8,18,0.00
2012-4-23,58,47,38,31,26,20,73,47,25,29.91,29.80,23,8,23,0.00
2012-4-24,62,50,37,45,31,18,84,51,27,29.85,29.79,18,6,18,0.05
2012-4-25,76,60,48,62,52,45,90,78,53,29.85,29.70,15,4,15,0.23
2012-4-26,79,68,55,65,58,43,83,70,50,29.99,29.65,22,8,22,0.02
2012-4-27,65,52,40,43,33,28,68,49,28,30.20,29.99,18,6,18,0.00
2012-4-28,79,61,48,64,48,34,82,62,49,30.13,29.94,15,4,15,0.02
2012-4-29,81,64,49,64,55,46,89,74,52,30.20,30.04,15,4,15,0.01
2012-4-30,82,71,60,64,59,56,86,69,46,30.10,29.94,20,6,20,0.02
2012-5-1,83,71,62,68,64,59,90,77,55,30.09,29.93,15,4,15,0.01
2012-5-2,88,77,68,66,64,61,80,65,48,30.07,29.96,20,5,20,0.00
2012-5-3,81,75,67,67,64,60,82,70,59,30.13,30.01,12,4,12,0.00
2012-5-4,84,73,67,68,64,61,87,75,54,30.04,29.87,16,4,16,0.00
2012-5-5,82,70,63,67,63,60,90,80,59,30.00,29.88,20,3,20,0.64
2012-5-6,87,74,62,68,64,59,90,72,48,30.04,29.89,8,1,8,0.00
2012-5-7,84,73,64,67,63,61,88,73,52,29.91,29.77,17,5,17,0.22
2012-5-8,74,68,64,63,59,54,90,75,52,29.90,29.77,12,4,12,0.38
2012-5-9,71,64,57,54,48,39,84,59,35,29.91,29.80,17,4,17,0.00
2012-5-10,68,57,46,46,43,37,87,61,35,30.05,29.88,14,4,14,0.00
2012-5-11,76,61,47,44,41,37,80,51,27,30.21,30.05,12,2,12,0.00
2012-5-12,74,64,56,59,49,39,89,59,42,30.27,30.17,10,2,10,0.10
2012-5-13,63,61,60,60,58,57,90,90,89,30.19,30.04,8,2,8,1.14
2012-5-14,72,62,58,59,57,54,90,84,63,30.05,29.98,14,3,14,0.23
2012-5-15,81,66,52,60,55,49,90,72,41,30.05,29.97,9,1,9,0.00
2012-5-16,82,70,59,60,55,50,82,61,36,30.00,29.91,12,3,12,0.00
2012-5-17,76,65,55,60,50,40,79,59,44,30.09,29.98,15,6,15,0.00
2012-5-18,83,69,53,59,50,43,70,52,39,30.11,30.02,10,2,10,0.00
2012-5-19,88,74,59,61,56,51,80,57,36,30.13,30.05,10,2,10,0.00
2012-5-20,88,75,62,62,58,53,79,57,39,30.15,30.02,12,2,12,0.00
2012-5-21,79,70,63,65,59,54,81,69,57,30.03,29.92,15,4,15,0.00
2012-5-22,74,66,59,61,58,53,86,74,60,29.96,29.87,13,3,13,0.00
2012-5-23,82,69,58,62,59,54,90,71,50,29.93,29.85,10,1,10,0.00
2012-5-24,86,74,62,64,60,58,89,66,41,29.96,29.85,17,4,17,0.00
2012-5-25,91,78,66,68,62,56,71,59,44,30.07,29.90,15,4,15,0.00
2012-5-26,93,80,69,68,65,63,85,62,38,30.16,30.04,10,2,10,0.00
2012-5-27,95,82,69,68,65,63,86,60,38,30.08,29.96,9,2,9,0.00
2012-5-28,91,82,74,71,68,66,81,65,50,29.99,29.86,17,4,17,0.00
2012-5-29,80,75,69,69,66,63,83,74,63,29.91,29.81,15,3,15,0.03
2012-5-30,84,71,61,67,59,53,90,68,43,29.89,29.83,14,3,14,0.01
2012-5-31,87,70,53,62,53,47,88,59,30,29.90,29.66,17,3,17,0.35
2012-6-1,64,60,54,62,55,48,90,85,71,29.92,29.64,20,6,20,0.38
2012-6-2,69,59,48,50,47,44,89,67,42,29.98,29.90,16,5,16,0.00
2012-6-3,80,68,56,59,55,49,87,63,42,29.94,29.84,18,4,18,0.02
2012-6-4,75,66,60,60,57,54,89,74,51,29.86,29.78,13,2,13,0.04
2012-6-5,74,64,55,57,52,48,90,67,42,29.93,29.81,16,5,16,0.00
2012-6-6,75,63,53,53,51,48,86,65,41,30.04,29.92,13,5,13,0.00
2012-6-7,82,68,52,54,50,46,87,56,31,30.10,30.04,14,3,14,0.00
2012-6-8,87,73,56,56,51,47,80,50,28,30.11,29.98,12,2,12,0.00
2012-6-9,89,76,61,57,54,50,72,50,29,30.06,29.95,15,2,15,0.00
2012-6-10,88,75,66,64,60,55,72,59,40,30.05,29.98,14,2,14,0.00
2012-6-11,82,73,67,72,66,60,90,78,66,29.99,29.87,10,3,10,0.54
2012-6-12,84,75,68,69,65,53,90,72,48,30.01,29.90,13,3,13,0.00
2012-6-13,82,71,59,58,53,47,65,53,38,30.09,30.01,12,5,12,0.00
2012-6-14,85,72,59,53,50,46,64,46,27,30.11,30.05,15,4,15,0.00
2012-6-15,92,77,65,67,60,48,71,56,35,30.14,30.04,14,3,14,0.00
2012-6-16,86,76,70,70,66,63,82,71,56,30.20,30.04,14,4,14,0.00
2012-6-17,79,74,70,72,66,64,89,79,64,30.05,29.93,21,4,21,0.20
2012-6-18,88,78,70,65,63,60,83,61,43,30.00,29.92,18,6,18,0.00
2012-6-19,90,80,69,66,63,59,73,56,41,30.13,30.00,16,4,16,0.00
2012-6-20,95,82,70,67,64,62,75,56,38,30.17,30.02,13,2,13,0.00
2012-6-21,92,82,71,67,64,62,79,57,41,30.05,29.89,14,3,14,0.00
2012-6-22,88,78,68,69,63,56,87,61,36,29.95,29.88,13,3,13,0.00
2012-6-23,91,79,64,60,56,53,72,49,30,30.01,29.93,12,3,12,0.00
2012-6-24,93,82,70,62,59,56,67,46,29,30.01,29.88,13,3,13,0.00
2012-6-25,87,78,68,65,59,47,75,53,35,29.94,29.83,18,6,18,0.00
2012-6-26,81,69,55,50,46,42,65,45,29,30.00,29.92,18,7,18,0.00
2012-6-27,92,76,56,53,49,46,73,43,22,30.06,29.95,12,2,12,0.00
2012-6-28,101,85,68,63,57,52,57,41,25,29.97,29.84,20,6,20,0.00
2012-6-29,102,87,76,73,65,59,62,49,33,29.91,29.78,27,5,27,0.00
2012-6-30,102,88,74,70,66,62,73,51,29,29.90,29.80,23,3,23,0.00
2012-7-1,102,88,71,68,64,58,73,47,28,30.04,29.84,32,5,32,0.05
2012-7-2,97,82,68,68,65,61,86,59,36,30.03,29.93,14,4,14,0.13
2012-7-3,96,82,71,71,65,62,75,58,35,30.02,29.87,12,3,12,0.01
2012-7-4,99,86,74,71,68,65,78,57,34,29.99,29.88,12,2,12,0.00
2012-7-5,96,83,74,73,68,62,74,60,45,29.97,29.90,20,4,20,0.00
2012-7-6,103,86,70,70,66,62,77,54,30,30.00,29.90,12,2,12,0.00
2012-7-7,104,92,77,71,67,61,77,48,26,29.99,29.86,10,2,10,0.00
2012-7-8,100,86,74,75,69,65,83,59,37,30.00,29.80,28,5,28,0.06
2012-7-9,80,76,72,69,66,62,88,73,59,30.01,29.93,12,3,12,0.10
2012-7-10,93,81,69,63,60,54,74,52,30,30.02,29.94,12,3,12,0.00
2012-7-11,96,82,69,65,61,56,76,53,30,30.05,29.98,12,3,12,0.00
2012-7-12,88,76,70,70,66,63,90,73,45,30.10,30.03,11,2,11,0.58
2012-7-13,77,72,69,70,68,66,90,87,79,30.11,30.06,8,1,8,0.54
2012-7-14,90,76,71,72,70,66,90,82,55,30.15,30.07,18,3,18,0.67
2012-7-15,87,76,70,75,70,67,90,81,59,30.18,30.04,14,3,14,0.14
2012-7-16,91,81,71,73,70,67,87,72,52,30.09,29.93,14,3,14,0.00
2012-7-17,94,84,75,73,71,70,83,67,46,29.99,29.86,16,4,16,0.00
2012-7-18,96,81,69,75,70,66,90,72,45,30.02,29.87,25,4,25,1.42
2012-7-19,92,75,69,76,69,66,90,83,57,30.00,29.83,20,4,20,0.96
2012-7-20,87,74,71,74,69,65,89,83,61,30.01,29.87,17,6,17,0.12
2012-7-21,87,74,68,67,64,62,83,71,51,30.08,30.00,12,4,12,0.00
2012-7-22,92,79,64,68,63,58,90,62,34,30.16,30.07,10,2,10,0.00
2012-7-23,93,83,75,75,71,64,85,68,50,30.12,30.00,13,4,13,0.00
2012-7-24,93,83,77,77,72,69,80,70,56,30.01,29.88,12,5,12,0.00
2012-7-25,96,85,74,76,73,69,84,68,50,29.93,29.80,14,4,14,0.00
2012-7-26,95,84,73,76,72,64,86,68,51,29.84,29.70,22,9,22,0.22
2012-7-27,90,77,66,74,69,60,90,78,50,30.00,29.82,29,6,29,1.24
2012-7-28,84,74,66,69,65,62,90,75,53,30.06,29.93,17,4,17,0.18
2012-7-29,89,76,65,66,62,59,88,64,41,30.10,29.98,10,2,10,0.00
2012-7-30,92,79,67,67,64,62,86,63,41,30.02,29.90,8,1,8,0.00
2012-7-31,92,82,71,69,66,62,81,60,39,29.93,29.84,16,2,16,0.00
2012-8-1,92,82,72,72,68,64,83,64,42,29.89,29.81,12,2,12,0.00
2012-8-2,96,82,70,71,65,56,82,58,30,29.91,29.81,10,2,10,0.00
2012-8-3,80,76,73,73,68,65,90,78,62,29.94,29.83,12,3,12,0.34
2012-8-4,90,80,73,76,73,69,90,79,63,30.04,29.92,18,6,18,0.18
2012-8-5,82,78,75,74,72,70,88,81,74,30.10,30.01,16,6,16,0.02
2012-8-6,90,79,71,72,68,64,90,70,48,30.13,30.00,12,2,12,0.09
2012-8-7,92,80,70,70,66,62,85,62,38,30.01,29.93,8,1,8,0.00
2012-8-8,93,82,71,70,67,62,84,62,37,30.00,29.90,12,2,12,0.00
2012-8-9,90,76,68,71,66,62,86,72,52,29.93,29.77,25,3,25,0.33
2012-8-10,78,72,66,68,63,57,90,75,51,29.89,29.71,14,5,14,0.10
2012-8-11,78,67,57,59,56,52,85,68,47,30.01,29.89,12,2,12,0.00
2012-8-12,82,70,56,58,54,50,86,59,36,30.07,30.00,12,2,12,0.00
2012-8-13,81,72,62,63,59,55,82,63,49,30.03,29.90,12,2,12,0.00
2012-8-14,82,73,66,68,64,62,87,74,56,29.93,29.86,12,3,12,0.00
2012-8-15,85,75,67,65,61,58,84,65,40,30.00,29.91,13,2,13,0.00
2012-8-16,90,76,64,65,61,58,84,62,38,30.05,29.85,17,3,17,0.00
2012-8-17,81,70,66,67,62,55,90,76,48,29.96,29.87,12,3,12,0.00
2012-8-18,84,70,60,57,54,52,80,58,34,30.00,29.88,10,3,10,0.00
2012-8-19,83,72,64,58,53,49,70,53,33,29.92,29.84,12,3,12,0.00
2012-8-20,81,69,56,55,51,47,80,54,33,30.00,29.90,14,2,14,0.00
2012-8-21,83,68,58,61,55,51,87,67,39,30.10,29.99,13,2,13,0.03
2012-8-22,85,70,56,58,55,50,89,62,32,30.16,30.07,12,1,12,0.01
2012-8-23,90,76,60,59,56,54,81,54,31,30.15,30.05,12,1,12,0.00
2012-8-24,95,79,65,63,57,52,76,51,25,30.12,30.01,11,2,11,0.00
2012-8-25,94,78,66,66,61,56,78,57,31,30.12,30.04,12,2,12,0.00
2012-8-26,91,79,67,68,64,61,82,61,41,30.16,30.02,10,2,10,0.00
2012-8-27,90,79,69,70,66,62,88,66,46,30.09,29.95,16,3,16,0.00
2012-8-28,89,78,72,71,67,59,90,71,42,30.05,29.95,12,3,12,0.07
2012-8-29,89,76,66,62,59,56,75,56,35,30.05,29.96,14,4,14,0.00
2012-8-30,94,79,64,70,60,54,72,54,34,30.10,30.00,12,3,12,0.00
2012-8-31,89,80,72,73,70,68,87,72,57,30.19,30.07,12,3,12,0.00
2012-9-1,90,81,75,72,70,69,84,70,51,30.11,29.96,17,4,17,0.00
2012-9-2,80,76,72,72,70,68,90,81,71,29.99,29.78,16,4,16,1.04
2012-9-3,84,75,72,73,70,68,90,85,70,29.89,29.81,12,3,12,0.21
2012-9-4,88,78,70,72,70,67,90,78,58,29.92,29.84,7,1,7,0.00
2012-9-5,90,77,68,74,70,64,90,80,53,29.89,29.79,17,2,17,0.37
2012-9-6,87,75,68,70,67,65,90,77,55,29.99,29.87,8,1,8,0.00
2012-9-7,91,79,68,72,68,65,90,73,51,29.96,29.70,13,3,13,0.00
2012-9-8,80,68,61,69,59,51,90,75,49,29.95,29.67,20,5,20,0.85
2012-9-9,76,64,54,56,52,50,86,67,46,30.07,29.93,13,3,13,0.00
2012-9-10,78,66,56,53,51,48,85,61,37,30.21,30.07,12,3,12,0.00
2012-9-11,82,68,54,57,51,47,78,57,37,30.28,30.19,12,2,12,0.00
2012-9-12,84,71,60,63,58,54,83,66,45,30.30,30.21,10,2,10,0.00
2012-9-13,84,74,67,63,60,58,79,63,43,30.31,30.20,10,2,10,0.00
2012-9-14,82,70,61,64,59,54,82,70,46,30.27,30.18,14,4,14,0.00
2012-9-15,76,65,56,54,48,46,77,57,36,30.31,30.16,15,5,15,0.00
2012-9-16,81,69,60,59,52,47,72,57,40,30.17,30.03,9,2,9,0.00
2012-9-17,70,66,63,65,62,58,90,85,72,30.04,29.76,12,2,12,0.55
2012-9-18,66,63,54,63,57,42,90,81,60,30.03,29.66,14,4,14,0.55
2012-9-19,71,56,42,43,40,35,89,57,30,30.21,30.03,10,2,10,0.00
2012-9-20,78,62,47,52,46,39,81,58,35,30.11,29.97,16,4,16,0.00
2012-9-21,77,68,59,62,55,51,76,64,55,30.03,29.81,22,5,22,0.00
2012-9-22,74,66,49,57,48,32,78,55,34,30.15,29.82,29,9,29,0.00
2012-9-23,64,50,38,42,37,32,84,62,39,30.29,30.15,10,1,10,0.00
2012-9-24,69,54,39,42,38,35,86,60,33,30.32,30.12,12,2,12,0.00
2012-9-25,71,59,52,60,50,40,90,73,61,30.16,30.00,20,5,20,0.78
2012-9-26,81,71,63,66,60,56,85,71,60,30.15,30.05,20,5,20,0.09
2012-9-27,76,69,64,65,62,60,89,80,66,30.16,30.08,15,3,15,0.27
2012-9-28,69,66,64,65,63,60,90,89,83,30.11,30.02,6,1,6,0.78
2012-9-29,72,64,56,61,56,51,90,77,48,30.05,29.96,12,2,12,0.00
2012-9-30,73,62,52,56,52,49,90,72,49,29.98,29.84,12,2,12,0.01
2012-10-1,63,59,57,58,54,49,90,83,67,29.87,29.63,15,4,15,0.30
2012-10-2,74,66,61,68,61,56,90,85,67,29.93,29.64,13,3,13,0.10
2012-10-3,71,62,54,57,53,50,88,74,52,30.17,29.93,13,3,13,0.00
2012-10-4,77,64,55,60,55,51,88,73,51,30.27,30.17,13,3,13,0.00
2012-10-5,77,67,57,62,57,52,86,72,52,30.20,29.93,17,4,17,0.00
2012-10-6,59,49,41,52,37,33,87,66,38,30.18,29.97,23,4,23,0.04
2012-10-7,56,48,43,40,37,34,82,65,47,30.22,30.12,10,3,10,0.00
2012-10-8,58,47,41,41,36,32,83,67,49,30.27,30.17,8,2,8,0.00
2012-10-9,64,49,37,43,39,34,90,72,44,30.22,30.04,10,2,10,0.00
2012-10-10,58,51,42,46,40,31,85,68,43,30.28,30.02,16,5,16,0.00
2012-10-11,64,48,34,40,34,29,81,60,35,30.34,30.22,12,2,12,0.00
2012-10-12,68,54,44,46,41,36,78,62,45,30.36,30.24,12,2,12,0.00
2012-10-13,75,60,46,60,50,39,81,69,55,30.35,30.09,17,5,17,0.00
2012-10-14,74,66,61,61,57,52,87,72,62,30.09,29.79,30,11,30,0.22
2012-10-15,62,55,47,57,45,39,86,69,48,30.00,29.83,16,5,16,0.67
2012-10-16,69,53,39,44,40,35,86,64,38,30.05,29.86,9,2,9,0.00
2012-10-17,76,62,52,51,47,41,79,58,41,29.89,29.61,20,6,20,0.00
2012-10-18,64,58,52,52,41,28,87,56,27,29.74,29.54,22,8,22,0.10
2012-10-19,58,51,47,42,39,34,80,63,45,29.81,29.64,24,7,24,0.04
2012-10-20,53,48,45,44,41,39,84,76,67,30.05,29.80,15,4,15,0.00
2012-10-21,71,56,44,50,45,39,86,68,44,30.18,30.04,12,2,12,0.00
2012-10-22,76,64,55,57,50,45,70,60,46,30.19,30.07,14,4,14,0.00
2012-10-23,79,67,57,55,50,45,72,55,35,30.14,30.03,16,4,16,0.00
2012-10-24,79,67,57,56,51,47,77,58,37,30.17,30.05,12,2,12,0.00
2012-10-25,80,66,54,56,52,47,78,60,41,30.10,29.98,16,3,16,0.00
2012-10-26,66,56,46,54,49,42,88,79,65,30.11,30.00,20,6,20,0.04
2012-10-27,48,46,43,43,41,37,89,84,67,30.13,30.04,18,8,18,0.20
2012-10-28,47,45,43,37,36,32,78,71,65,30.10,30.03,20,10,20,0.00
2012-10-29,45,41,34,34,29,22,78,63,40,30.06,29.80,29,9,29,0.00
2012-10-30,43,39,37,35,32,26,87,78,53,29.80,29.64,22,10,22,0.26
2012-10-31,47,41,38,36,33,30,87,73,57,29.91,29.76,15,5,15,0.03
2012-11-1,53,44,34,36,28,20,82,55,28,29.98,29.90,15,4,15,0.00
2012-11-2,55,48,40,33,30,27,66,52,41,30.12,29.87,14,3,14,0.00
2012-11-3,51,41,35,38,33,28,86,72,58,30.21,30.05,17,3,17,0.25
2012-11-4,52,42,34,36,34,28,88,74,53,30.19,30.11,12,3,12,0.00
2012-11-5,50,39,29,34,30,24,84,70,54,30.20,30.10,8,2,8,0.00
2012-11-6,54,43,32,36,31,26,77,61,49,30.11,29.94,7,2,7,0.00
2012-11-7,52,43,38,40,36,31,88,77,53,30.14,29.91,8,2,8,0.06
2012-11-8,53,40,31,34,31,27,87,70,47,30.30,30.14,8,1,8,0.01
2012-11-9,62,47,33,42,35,28,84,65,44,30.33,30.20,13,2,13,0.00
2012-11-10,73,58,47,47,39,35,63,50,33,30.29,30.19,17,5,17,0.00
2012-11-11,70,60,50,47,40,35,61,48,31,30.32,30.13,25,8,25,0.00
2012-11-12,64,48,31,54,42,25,89,79,61,30.46,30.05,26,7,26,0.79
2012-11-13,46,35,25,28,25,21,85,68,46,30.56,30.46,8,1,8,0.01
2012-11-14,44,36,28,30,26,22,82,66,54,30.54,30.39,12,3,12,0.00
2012-11-15,49,37,27,31,27,22,82,67,48,30.41,30.34,8,2,8,0.00
2012-11-16,52,40,31,33,29,25,81,66,45,30.50,30.39,12,3,12,0.00
2012-11-17,60,46,34,36,31,28,81,59,38,30.56,30.46,12,3,12,0.00
2012-11-18,64,49,36,30,27,24,66,46,25,30.47,30.37,7,2,7,0.00
2012-11-19,62,48,37,37,32,28,70,55,36,30.39,30.22,5,0,5,0.00
2012-11-20,64,53,41,43,37,31,68,54,39,30.23,30.08,8,1,8,0.00
2012-11-21,66,52,42,42,38,34,79,60,39,30.25,30.12,10,1,10,0.00
2012-11-22,67,52,40,44,39,34,81,62,41,30.25,30.10,13,3,13,0.00
2012-11-23,55,47,33,46,34,22,85,61,47,30.21,30.01,18,7,18,0.00
2012-11-24,35,29,24,22,18,16,74,64,52,30.30,30.20,12,3,12,0.00
2012-11-25,52,38,24,25,22,16,74,53,33,30.20,29.99,18,6,18,0.00
2012-11-26,51,43,35,38,29,22,87,57,42,30.22,30.10,6,1,6,0.31
2012-11-27,41,36,30,37,31,26,87,81,70,30.38,30.22,16,4,16,0.07
2012-11-28,43,33,26,29,25,21,90,75,51,30.51,30.36,9,2,9,0.01
2012-11-29,53,38,26,31,26,21,83,64,41,30.47,30.31,12,2,12,0.00
2012-11-30,57,48,42,40,35,28,74,61,52,30.33,30.22,21,5,21,0.00
2012-12-1,64,54,45,48,43,37,76,66,54,30.33,30.22,12,3,12,0.00
2012-12-2,66,60,56,55,51,45,82,71,63,30.19,30.11,22,7,29,0.10
2012-12-3,71,63,58,57,52,48,75,68,57,30.22,30.12,7,2,20,0.00
2012-12-4,63,57,45,58,51,40,90,81,69,30.25,30.07,9,3,21,0.78
2012-12-5,54,44,36,41,37,29,90,75,49,30.37,30.24,3,1,10,0.01
2012-12-6,53,43,32,47,37,27,87,79,66,30.28,30.04,3,1,13,0.06
2012-12-7,58,54,50,53,50,46,90,88,81,30.05,29.90,3,1,12,0.53
2012-12-8,59,56,51,55,52,48,90,87,79,30.01,29.88,6,2,12,0.26
2012-12-9,61,56,51,57,53,48,90,89,85,30.01,29.76,8,2,20,0.78
2012-12-10,59,44,31,55,41,26,90,88,81,30.00,29.66,6,2,14,0.89
2012-12-11,35,30,25,26,24,20,84,76,63,30.32,30.00,2,1,7,0.00
2012-12-12,44,32,22,27,23,18,87,71,48,30.47,30.32,2,0,8,0.01
2012-12-13,51,35,26,32,26,20,82,69,45,30.46,30.34,2,0,9,0.00
2012-12-14,56,41,28,31,27,23,80,59,34,30.40,30.20,3,0,9,0.00
2012-12-15,56,50,42,44,37,28,72,62,54,30.20,29.87,6,2,20,0.03
2012-12-16,60,57,54,54,51,46,85,82,69,29.88,29.72,7,3,15,0.00
2012-12-17,59,52,44,52,48,40,90,86,73,29.77,29.55,7,2,28,0.80
2012-12-18,46,42,38,43,36,33,90,79,64,29.95,29.65,8,3,17,0.02
2012-12-19,55,46,39,40,37,34,83,72,55,30.11,29.89,8,1,16,0.00
2012-12-20,55,45,30,46,38,25,89,78,62,29.97,29.39,17,6,37,1.21
2012-12-21,30,28,26,25,21,19,83,75,68,30.21,29.70,13,6,28,0.00
2012-12-22,37,30,20,23,20,15,80,67,55,30.37,30.16,12,4,12,0.00
2012-12-23,51,40,30,38,28,18,85,62,50,30.17,29.97,13,5,13,0.00
2012-12-24,49,45,38,46,41,33,90,88,82,30.03,29.80,12,4,12,0.07
2012-12-25,38,34,31,33,27,25,84,77,70,30.19,29.97,18,5,18,0.01
2012-12-26,43,35,30,40,32,25,89,87,82,30.00,29.49,24,8,24,0.38
2012-12-27,31,29,28,25,23,22,83,78,75,30.23,30.00,12,4,12,0.00
2012-12-28,39,33,29,31,27,22,88,78,69,30.21,29.84,10,2,10,0.06
2012-12-29,33,30,24,30,26,18,89,85,75,30.32,29.74,16,5,16,0.07
2012-12-30,31,25,23,21,19,17,81,76,67,30.56,30.32,13,4,13,0.01
2012-12-31,36,32,24,30,24,19,85,74,68,30.45,30.15,12,4,12,0.01
2013-1-1,34,33,31,32,30,28,90,88,85,30.19,30.08,7,2,7,0.32